Lid_Strength_Index
14 14 14 14 13 13 12 12 12 12 12 12 12 13 13 13 12 12 12 12 13 13 13 14 14 14 14 14 14 14 15 14
15 15 15 14 14 13 13 13 13 12 12 13 13 13 12 12 12 12 13 13 13 13 13 14 14 14 14 14 15 15 15 14
15 15 15 14 14 13 13 13 12 12 13 12 12 12 12 12 13 13 13 13 13 13 14 14 14 14 15 15 15 15 16 13
15 15 14 14 14 13 13 13 13 13 13 13 12 12 12 12 13 13 13 14 14 14 14 14 14 15 15 15 15 15 15 15
14 14 14 14 14 14 13 12 12 12 12 12 12 12 12 12 13 13 13 14 14 14 14 14 15 15 15 15 15 15 15 15
13 13 14 14 14 14 13 13 12 12 12 12 12 12 12 13 13 14 14 14 14 14 14 15 16 15 16 16 15 15 15 15
12 13 13 13 13 13 14 13 13 12 12 12 13 13 13 13 14 14 14 15 15 15 15 16 15 14 13 13 15 15 16 18
13 13 12 12 13 13 13 14 14 13 13 13 13 13 13 14 14 14 15 15 15 16 16 18 18 13 13 12 16 18 20 20
15 15 14 13 13 13 14 15 14 14 14 13 14 14 14 14 14 15 15 15 16 17 18 21 20 14 13 12 19 22 23 24
17 16 15 14 14 14 15 15 15 15 14 14 14 14 15 15 15 15 17 19 18 20 20 21 20 14 12 13 22 22 22 23
18 17 17 16 16 16 15 15 15 14 14 14 14 14 15 14 15 18 17 16 15 18 19 20 19 15 13 13 21 23 24 25
19 18 18 17 17 16 15 16 15 16 16 15 14 14 14 15 16 17 17 18 17 19 19 20 21 20 13 12 21 20 23 25
20 19 19 19 18 17 17 16 16 17 16 16 15 14 14 15 16 16 16 17 16 17 18 19 20 19 14 12 12 15 20 22
21 20 20 20 19 18 18 16 16 17 17 17 16 15 14 15 16 17 16 16 16 16 16 16 18 19 13 13 12 12 21 23
20 20 21 21 20 19 18 16 16 16 17 18 17 17 16 15 15 15 15 15 15 16 17 16 19 18 18 18 17 14 16 17
21 22 22 22 21 20 20 19 18 16 17 19 18 17 16 15 14 14 13 13 14 14 15 16 17 16 15 16 18 19 18 24
23 24 23 24 23 22 21 20 19 17 16 18 18 18 17 15 16 12 12 12 12 12 14 15 14 13 13 13 13 14 14 25
25 24 25 24 23 22 22 21 20 19 17 15 17 17 16 15 15 15 14 11 11 11 11 12 14 12 12 12 12 12 13 25
26 26 25 24 25 23 23 22 21 20 18 15 13 14 14 14 14 14 14 14 13 11 11 11 11 12 11 11 12 14 14 23
28 27 25 26 26 25 25 24 22 21 18 16 14 13 14 14 15 14 13 13 13 15 12 11 11 11 11 11 19 17 18 20